Starlink 11374

operational
NORAD ID: 61581 Int'l Des: 2024-187 Owner: SPXS Country: US Constellation: starlink
LEOCIRCULAR

关于 Starlink 11374

正在加载描述...

实时位置

正在加载3D地球...

即将过境

高度历史

Altitude vs Time

uPlot chart will show altitude changes over time

两行轨道根数

1 61581U 24187H 25352.24557735 -.00000181 00000-0 33679-5 0 9992
2 61581 53.1594 338.1081 0001375 80.8000 279.3173 15.69725523 68007
Epoch: Dec 18, 2025 • Age: 9 hours

当前状态

高度 378.8 km
速度 7.68 km/s
星下点 -52.55°S, 48.46°W
发射日期 Oct 18, 2024
运行时间 1.1 years
类型 internet

技术详情

分类 Payload
质量 960.00 kg
干质量 910.00 kg
总质量 960.00 kg
长度 0.30 m
直径 4.10 m
跨度 29.00 m
形状 Box + pan
制造商 SPXS
平台类型 Starlink V2MD
阶段状态 In Orbit
所有者/国家 SPXS/US

大型星座

Loading constellations...